Simultaneous Nadir Overpasses (SNOs) Predictions

Prediction of SNOs between AQUA and METOP-A Satellite Orbit:

Table of predicted SNOs for the next 14.0 days since TLE Epoch: 11/11/2011
Index Date Time (AQUA) AQUA Lat,Lon METOP-A Lat,Lon Distance(km) Time Diff (sec)
1 11/12/2011 01:10:23 -70.78, -18.34 -70.81, -29.09 392.70 24
2 11/12/2011 02:00:45 73.69, 143.97 73.70, 143.99 1.71 63
3 11/12/2011 02:50:12 -73.77, -48.56 -73.76, -48.55 1.56 11
4 11/12/2011 03:39:46 74.11, 118.31 74.13, 119.70 42.49 69
5 11/14/2011 20:44:50 -71.63, 46.74 -71.59, 38.69 282.44 42
6 11/14/2011 21:34:56 73.68,-149.55 73.71,-149.59 3.07 50
7 11/14/2011 22:24:23 -73.76, 17.92 -73.76, 17.86 2.01 24
8 11/14/2011 23:14:07 74.61,-176.45 74.57,-172.73 110.04 63
9 11/17/2011 16:19:13 -72.34, 111.95 -72.30, 106.44 185.99 55
10 11/17/2011 17:09:06 73.70, -83.13 73.69, -83.21 2.44 36
11 11/17/2011 17:58:33 -73.77, 84.35 -73.79, 84.36 2.35 37
12 11/17/2011 18:48:28 75.19,-111.50 75.19,-104.57 196.70 53
13 11/20/2011 11:53:33 -73.02, 177.11 -72.94, 174.16 96.52 65
14 11/20/2011 12:43:14 73.75, -16.77 73.72, -16.73 3.26 22
15 11/20/2011 13:32:41 -73.82, 150.72 -73.82, 150.83 3.32 51
16 11/20/2011 14:22:50 75.94, -47.18 75.87, -36.01 302.36 39
17 11/23/2011 07:27:51 -73.62,-117.66 -73.60,-117.94 9.22 73
18 11/23/2011 08:17:20 73.72, 49.77 73.73, 49.71 2.32 5




NCC Satellite Simultaneous Nadir Overpasses (SNOs) Prediction Service
